Regional Weather Roundup
Issued by NWS Cleveland, OH

Home | Current Version | Previous Version | Graphics & Text | Print | Product List | Glossary On
Versions: 1 2 3 4 5 6 7 8 9 10 11 12 13 14 15 16 17 18 19 20 21 22 23 24 25 26 27 28 29 30 31 32 33 34 35 36 37 38 39 40 41 42 43 44 45 46 47 48 49 50
000
ASUS41 KCLE 272002
RWRCLE
OHIO REGIONAL WEATHER ROUNDUP
NATIONAL WEATHER SERVICE CLEVELAND, OH
400 PM EDT WED MAY 27 2015

NOTE: "FAIR" INDICATES FEW OR NO CLOUDS BELOW 12,000 FEET WITH NO
SIGNIFICANT WEATHER AND/OR OBSTRUCTIONS TO VISIBILITY.

OHZ001>008-015>018-024>027-034-035-043-044-272100-
   NORTHWEST OHIO

CITY           SKY/WX    TMP DP  RH WIND       PRES   REMARKS
DEFIANCE       LGT RAIN  65  62  90 S5        30.02F
FINDLAY        MOSUNNY   83  63  50 SW28      30.00R
TOLEDO EXPRESS LGT RAIN  67  62  84 SW13      30.00S
TOLEDO EXEC    CLOUDY    67  62  84 W9        30.01F
LIMA           PTSUNNY   80  61  52 SW20G28   30.01F
$$

OHZ009>014-019>023-028>033-038-089-272100-
   NORTHEAST OHIO

CITY           SKY/WX    TMP DP  RH WIND       PRES   REMARKS
CLE-HOPKINS    PTSUNNY   82  60  47 SW17G28   30.03F
CLE-LAKEFRONT  MOSUNNY   84  60  44 S21G29    30.00S
CUY CO. ARPT   NOT AVBL
LORAIN-ELYRIA  MOSUNNY   83  60  45 SW22G32   30.02F
ASHTABULA      MOSUNNY   80  61  52 S15G24    30.04F
AKRON-CANTON   MOSUNNY   82  60  47 SW16G24   30.07F
WOOSTER        MOSUNNY   78  62  57 S18       30.07F
MANSFIELD      MOSUNNY   80  61  52 S22G29    30.06F
YOUNGSTOWN     PTSUNNY   81  61  50 SW13G23   30.07F
$$

OHZ042-051>053-060>062-070>072-077>081-272100-
  SOUTHWEST OHIO

CITY           SKY/WX    TMP DP  RH WIND       PRES   REMARKS
CINC-COVINGTON PTSUNNY   79  64  60 S13       30.09F
CINC-LUNKEN    PTSUNNY   81  65  58 S17G23    30.08F
HAMILTON       MOSUNNY   84  65  52 S8G17     30.07F
DAYTON         PTSUNNY   83  61  47 SW15G29   30.06F
WRIGHT-PAT AFB NOT AVBL
DAYTON GENERAL MOSUNNY   81  62  52 SW14      30.07F
WILMINGTON     PTSUNNY   81  60  48 SW21G28   30.09F
$$

OHZ036-037-039>041-045>050-054>059-063>069-073>076-082>088-272100-
  CENTRAL AND SOUTHEAST OHIO

CITY           SKY/WX    TMP DP  RH WIND       PRES   REMARKS
COLUMBUS       PTSUNNY   81  62  52 S16       30.07F
OSU AIRPORT    MOSUNNY   83  61  47 SW18      30.06F
BOLTON FIELD     N/A     82  64  54 S17G23    30.08F
RICKENBACK AFB NOT AVBL
NEWARK         MOSUNNY   80  63  55 S9G20     30.08F
MARION         MOSUNNY   82  61  48 SW21G29   30.04F
LANCASTER      MOSUNNY   82  61  48 SW14      30.10F
ZANESVILLE     MOSUNNY   81  61  50 SW10      30.10F
NEW PHILLY     MOSUNNY   82  61  48 S12G20    30.10S
$$



USA.gov is the U.S. government's official web portal to all federal, state and local government web resources and services.